Flag Weather past 2 weeks in Leerdam, Netherlands

Now
42 °F

Scattered clouds.


Feels Like: 38 °F
Forecast: 42 / 49 °F
Wind: 7 mph from Southeast

Location: De Bilt

Current Time: Nov 26, 2014 at 2:03:24 PM

Latest Report: Nov 26, 2014 at 1:00 PM


Visibility: 7 mi

Pressure: 29.96 "Hg

Humidity: 78%

Dew point: 36 °F

Location of LeerdamLocation

Historic Weather in Leerdam — Graph

°F

Leerdam temperature yesterday

Maximum temperature yesterday: 48 °F (at 3:00 PM)
Minimum temperature yesterday: 30 °F (at 7:00 AM)
Average temperature yesterday: 39 °F

Past Weeks' High & Low Weather Summary

 TemperatureHumidityPressure
High56 °F (Nov 13, 2:00 PM)99% (Nov 12, 10:00 PM)30.35 "Hg (Nov 12, 10:00 PM)
Low30 °F (Nov 25, 7:00 AM)64% (Nov 24, 1:00 PM)29.47 "Hg (Nov 16, 5:00 PM)
Average47 °F88%29.92 "Hg
* Reported Nov 11 12:00 Noon — Nov 26 12:00 Noon, Leerdam, Weather by CustomWeather, © 2014

Note: Actual official high and low records may vary slightly from our data, if they occured in-between our weather recording intervals... More about our weather records

Advertising

Leerdam weather history for previous 24 hours

 ConditionsComfort  
Time TempWeatherWind HumidityBarometerVisibility
12:00 PM
Nov 26
42 °FPassing clouds.7 mph77%29.98 "Hg7 mi
11:00 AM41 °FPartly sunny.7 mph79%29.99 "Hg7 mi
10:00 AM39 °FFog.5 mph85%30.00 "Hg6 mi
9:00 AM39 °FFog.6 mph85%30.01 "Hg5 mi
7:00 AM38 °FFog.6 mph89%30.02 "Hg5 mi
4:00 AM37 °FFog.6 mph91%30.05 "Hg5 mi
1:00 AM39 °FFog.5 mph91%30.11 "Hg5 mi
12:00 AM40 °FPassing clouds.6 mph89%30.14 "Hg6 mi
11:00 PM
Nov 25
41 °FPassing clouds.6 mph87%30.15 "Hg7 mi
10:00 PM42 °FClear.6 mph87%30.15 "Hg7 mi
9:00 PM42 °FClear.6 mph85%30.16 "Hg8 mi
8:00 PM43 °FClear.6 mph83%30.17 "Hg11 mi
7:00 PM44 °FPassing clouds.6 mph81%30.18 "Hg12 mi
6:00 PM44 °FPassing clouds.5 mph82%30.19 "Hg11 mi
5:00 PM45 °FPassing clouds.5 mph82%30.20 "Hg10 mi
4:00 PM47 °FOvercast.5 mph78%30.22 "Hg14 mi
3:00 PM48 °FOvercast.6 mph73%30.23 "Hg19 mi
2:00 PM48 °FOvercast.5 mph80%30.24 "Hg14 mi
Weather by CustomWeather, © 2014

See weather overviewHow to use our weather pages